Location: Kerb�bon
(47.7970°N, 3.3487°W)
Time: 09:54:48
(UTC+00:00)

Cosmos 1818 - Pass Details

Date: 12 May 2021
Orbit: 771 x 802 km, 65.0° (Epoch: 20 June)

Event Time Altitude Azimuth Distance (km) Brightness Sun altitude
Rises 21:51:49 0° 324° (NW) 3,320 8.6 -17.0°
Reaches altitude 10° 21:54:22 10° 330° (NNW) 2,388 7.4 -17.2°
Maximum altitude 21:59:38 45° 43° (NE) 1,088 4.3 -17.7°
Enters shadow 22:02:54 22° 106° (ESE) 1,707 4.9 -18.0°
